Location: Bocianicha
(51.5066°N, 19.2563°E)
Time: 13:31:56
(UTC+00:00)

NPP - Pass Details

Date: 15 June 2025
Orbit: 826 x 828 km, 98.8° (Epoch: 18 July)

Event Time Altitude Azimuth Distance (km) Brightness Sun altitude
Rises 01:24:42 0° 12° (NNE) 3,383 8.2 -7.2°
Reaches altitude 10° 01:27:08 10° 7° (N) 2,445 7.2 -7.0°
Maximum altitude 01:32:18 48° 294° (WNW) 1,071 4.2 -6.5°
Drops below altitude 10° 01:37:27 10° 221° (SW) 2,428 5.4 -6.0°
Enters shadow 01:38:05 - 220° (SW) 2,671 5.6 -6.0°
